Location: Brusselsch Zeekanaal
(50.8667°N, 4.3667°E)
Time: 10:01:07
(UTC+00:00)

Cosmos 2298 Rocket - Pass Details

Date: 08 November 2025
Orbit: 773 x 781 km, 74.0° (Epoch: 11 December)

Event Time Altitude Azimuth Distance (km) Brightness Sun altitude
Exits shadow 03:46:57 73° 44° (NE) 820 4.1 -28.4°
Drops below altitude 10° 03:51:47 10° 26° (NNE) 2,347 6.9 -27.7°
Sets 03:54:11 0° 26° (NNE) 3,280 7.7 -27.3°
